FW9540 Weather Reports


time (UTC)temp
C
wind
direction
speed
KPH
gust
KPH
rain 1hr
cm
rain 24hr
cm
rain mn
cm
humidity
%
barometer
mb
20260906090449 26 194 0.0 1.6 0.00 0.00 0.00 66 1021.8
20260906085947 25 194 0.0 3.2 0.00 0.00 0.00 66 1021.8
20260906085419 25 194 1.6 6.4 0.00 0.00 0.00 67 1021.9
20260906084924 25 188 0.0 6.4 0.00 0.00 0.00 67 1021.9
20260906084416 25 178 1.6 6.4 0.00 0.00 0.00 67 1021.9
20260906083352 25 188 0.0 4.8 0.00 0.00 0.00 68 1021.9
20260906082848 24 188 0.0 1.6 0.00 0.00 0.00 69 1022.0
20260906082325 24 188 0.0 3.2 0.00 0.00 0.00 69 1022.0
20260906081758 23 188 0.0 4.8 0.00 0.00 0.00 69 1022.1
20260906081232 23 188 0.0 4.8 0.00 0.00 0.00 69 1022.1
20260906080732 23 85 0.0 0.0 0.00 0.00 0.00 70 1022.0
20260906080229 23 85 0.0 0.0 0.00 0.00 0.00 71 1022.0
20260906075707 23 83 0.0 1.6 0.00 0.00 0.00 72 1022.1
20260906074150 22 84 0.0 3.2 0.00 0.00 0.00 72 1022.1
20260906073118 22 192 0.0 0.0 0.00 0.00 0.00 74 1022.1
20260906072557 21 221 0.0 1.6 0.00 0.00 0.00 74 1022.1
20260906072026 21 221 0.0 1.6 0.00 0.00 0.00 76 1022.1
20260906071023 21 221 0.0 3.2 0.00 0.00 0.00 80 1022.1
20260906070522 21 221 0.0 0.0 0.00 0.00 0.00 81 1022.0
20260906065452 20 221 0.0 0.0 0.00 0.00 0.00 81 1022.0
20260906064428 20 221 0.0 0.0 0.00 0.00 0.00 82 1021.9
20260906063907 20 221 0.0 0.0 0.00 0.00 0.00 83 1021.9
20260906063407 20 221 0.0 0.0 0.00 0.00 0.00 85 1021.9
20260906062312 19 221 0.0 0.0 0.00 0.00 0.00 87 1021.9
20260906061247 18 221 0.0 0.0 0.00 0.00 0.00 89 1021.8
20260906060722 18 221 0.0 0.0 0.00 0.00 0.00 90 1021.8
20260906060201 18 221 0.0 0.0 0.00 0.00 0.00 91 1021.7
20260906055701 18 221 0.0 1.6 0.00 0.00 0.00 92 1021.7
20260906055138 18 221 0.0 1.6 0.00 0.00 0.00 92 1021.5
20260906054636 17 221 0.0 0.0 0.00 0.00 0.00 92 1021.5
20260906054117 17 221 0.0 0.0 0.00 0.00 0.00 93 1021.4
20260906053616 17 221 0.0 0.0 0.00 0.00 0.00 93 1021.4
20260906053100 17 221 0.0 0.0 0.00 0.00 0.00 93 1021.3
20260906052559 17 221 0.0 0.0 0.00 0.00 0.00 93 1021.2
20260906050542 16 221 0.0 0.0 0.00 0.00 0.00 92 1021.1
20260906050014 16 221 0.0 0.0 0.00 0.00 0.00 92 1021.0
20260906045516 16 221 0.0 0.0 0.00 0.00 0.00 92 1021.0
20260906044000 16 221 0.0 0.0 0.00 0.00 0.00 92 1020.8
20260906043503 16 221 0.0 0.0 0.00 0.00 0.00 92 1020.9
20260906042940 16 221 0.0 0.0 0.00 0.00 0.00 92 1020.8
20260906041920 16 221 0.0 0.0 0.00 0.00 0.00 92 1020.7
20260906041418 16 221 0.0 0.0 0.00 0.00 0.00 92 1020.7
20260906040918 16 221 0.0 0.0 0.00 0.00 0.00 92 1020.6
20260906040347 16 221 0.0 0.0 0.00 0.00 0.00 91 1020.5
20260906035847 17 221 0.0 0.0 0.00 0.00 0.00 92 1020.5
20260906035349 17 221 0.0 0.0 0.00 0.00 0.00 91 1020.5
20260906034846 17 221 0.0 0.0 0.00 0.00 0.00 91 1020.5
20260906034343 17 221 0.0 0.0 0.00 0.00 0.00 91 1020.3
20260906033822 17 221 0.0 0.0 0.00 0.00 0.00 91 1020.2
20260906033323 17 221 0.0 0.0 0.00 0.00 0.00 92 1020.2
20260906032240 17 221 0.0 0.0 0.00 0.00 0.00 91 1020.1
20260906031710 17 221 0.0 0.0 0.00 0.00 0.00 91 1020.2
20260906031213 17 221 0.0 0.0 0.00 0.00 0.00 91 1020.2
20260906030646 17 221 0.0 0.0 0.00 0.00 0.00 91 1020.1
20260906030127 17 221 0.0 0.0 0.00 0.00 0.00 91 1020.1
20260906025623 17 221 0.0 0.0 0.00 0.00 0.00 91 1020.0
20260906025103 17 221 0.0 0.0 0.00 0.00 0.00 91 1020.1
20260906024548 17 221 0.0 0.0 0.00 0.00 0.00 91 1020.0
20260906023501 17 221 0.0 0.0 0.00 0.00 0.00 91 1019.9
20260906023001 17 221 0.0 0.0 0.00 0.00 0.00 91 1019.8
20260906022452 17 221 0.0 0.0 0.00 0.00 0.00 91 1019.8
20260906021921 17 221 0.0 0.0 0.00 0.00 0.00 91 1019.8
20260906021422 17 221 0.0 0.0 0.00 0.00 0.00 91 1019.8
20260906020420 17 221 0.0 0.0 0.00 0.00 0.00 90 1019.7
20260906015858 17 221 0.0 0.0 0.00 0.00 0.00 90 1019.7
20260906015358 18 221 0.0 0.0 0.00 0.00 0.00 90 1019.7
20260906014829 18 221 0.0 0.0 0.00 0.00 0.00 91 1019.6
20260906014311 18 221 0.0 0.0 0.00 0.00 0.00 90 1019.6
20260906013749 18 221 0.0 0.0 0.00 0.00 0.00 90 1019.6
20260906013251 18 221 0.0 0.0 0.00 0.00 0.00 90 1019.6
20260906012735 18 221 0.0 0.0 0.00 0.00 0.00 90 1019.6
20260906012233 18 221 0.0 0.0 0.00 0.00 0.00 90 1019.5
20260906011709 18 221 0.0 0.0 0.00 0.00 0.00 90 1019.5
20260906011207 18 221 0.0 0.0 0.00 0.00 0.00 90 1019.6
20260906010204 18 221 0.0 0.0 0.00 0.00 0.00 90 1019.5
20260906005701 18 221 0.0 0.0 0.00 0.00 0.00 89 1019.4
20260906005201 18 221 0.0 0.0 0.00 0.00 0.00 89 1019.4
20260906004657 18 221 0.0 0.0 0.00 0.00 0.00 89 1019.4
20260906003116 18 221 0.0 0.0 0.00 0.00 0.00 89 1019.3
20260906002554 18 221 0.0 0.0 0.00 0.00 0.00 89 1019.3
20260906002032 18 221 0.0 0.0 0.00 0.00 0.00 89 1019.3
20260906001514 19 221 0.0 0.0 0.00 0.00 0.00 89 1019.3
20260906001012 19 221 0.0 0.0 0.00 0.00 0.00 89 1019.4
20260906000511 19 221 0.0 0.0 0.00 0.00 0.00 88 1019.3
20260906000008 19 221 0.0 0.0 0.00 0.00 0.00 88 1019.3
20260905235507 19 221 0.0 0.0 0.00 0.00 0.00 88 1019.3
20260905234948 19 221 0.0 0.0 0.00 0.00 0.00 88 1019.3
20260905234421 19 221 0.0 0.0 0.00 0.00 0.00 88 1019.2
20260905233857 19 221 0.0 0.0 0.00 0.00 0.00 88 1019.2
20260905233333 19 221 0.0 0.0 0.00 0.00 0.00 88 1019.2
20260905232817 19 221 0.0 0.0 0.00 0.00 0.00 88 1019.2
20260905232255 20 221 0.0 0.0 0.00 0.00 0.00 87 1019.1
20260905231734 20 221 0.0 0.0 0.00 0.00 0.00 87 1019.0
20260905231212 20 221 0.0 0.0 0.00 0.00 0.00 87 1019.1
20260905230645 20 221 0.0 0.0 0.00 0.00 0.00 87 1019.0
20260905230127 20 221 0.0 0.0 0.00 0.00 0.00 87 1019.0
20260905225626 20 221 0.0 0.0 0.00 0.00 0.00 86 1019.0
20260905225128 20 221 0.0 0.0 0.00 0.00 0.00 86 1018.9
20260905224604 20 221 0.0 0.0 0.00 0.00 0.00 85 1018.9
20260905224044 20 221 0.0 0.0 0.00 0.00 0.00 86 1018.8
20260905223536 20 221 0.0 0.0 0.00 0.00 0.00 86 1018.8
20260905222535 21 221 0.0 0.0 0.00 0.00 0.00 85 1018.7
20260905222025 21 221 0.0 0.0 0.00 0.00 0.00 85 1018.6
20260905221512 21 221 0.0 0.0 0.00 0.00 0.00 86 1018.6
20260905220425 20 221 0.0 0.0 0.00 0.00 0.00 86 1018.5
20260905215346 20 221 0.0 0.0 0.00 0.00 0.00 86 1018.5
20260905214844 20 221 0.0 0.0 0.00 0.00 0.00 86 1018.4
20260905214316 21 221 0.0 0.0 0.00 0.00 0.00 85 1018.3
20260905213814 21 221 0.0 0.0 0.00 0.00 0.00 85 1018.2
20260905213304 21 221 0.0 0.0 0.00 0.00 0.00 85 1018.1
20260905212804 21 221 0.0 0.0 0.00 0.00 0.00 85 1018.0
20260905212237 21 221 0.0 0.0 0.00 0.00 0.00 84 1018.0
20260905211734 21 221 0.0 0.0 0.00 0.00 0.00 84 1018.1
20260905211211 21 221 0.0 0.0 0.00 0.00 0.00 84 1018.1
20260905210714 21 221 0.0 0.0 0.00 0.00 0.00 84 1018.0
20260905210134 21 221 0.0 0.0 0.00 0.00 0.00 83 1018.0
20260905204538 21 221 0.0 0.0 0.00 0.00 0.00 83 1017.9
20260905203528 21 221 0.0 0.0 0.00 0.00 0.00 83 1017.9
20260905203022 21 221 0.0 0.0 0.00 0.00 0.00 83 1017.9
20260905202519 21 221 0.0 0.0 0.00 0.00 0.00 83 1017.8
20260905202015 21 221 0.0 0.0 0.00 0.00 0.00 83 1017.8
20260905201441 21 221 0.0 0.0 0.00 0.00 0.00 83 1017.7
20260905200934 21 221 0.0 0.0 0.00 0.00 0.00 83 1017.6
20260905200433 21 221 0.0 0.0 0.00 0.00 0.00 82 1017.7
20260905195904 22 221 0.0 0.0 0.00 0.00 0.00 82 1017.6
20260905195401 22 221 0.0 0.0 0.00 0.00 0.00 82 1017.5
20260905194835 22 221 0.0 0.0 0.00 0.00 0.00 82 1017.4
20260905194332 22 221 0.0 0.0 0.00 0.00 0.00 81 1017.3
20260905193804 22 221 0.0 0.0 0.00 0.00 0.00 81 1017.2
20260905193306 22 221 0.0 0.0 0.00 0.00 0.00 81 1017.1
20260905192215 22 221 0.0 0.0 0.00 0.00 0.00 80 1016.9
20260905191201 23 221 0.0 0.0 0.00 0.00 0.00 79 1016.8
20260905190140 23 221 0.0 0.0 0.00 0.00 0.00 79 1016.6
20260905185640 23 221 0.0 0.0 0.00 0.00 0.00 79 1016.6
20260905185143 23 221 0.0 0.0 0.00 0.00 0.00 79 1016.5
20260905184614 23 221 0.0 0.0 0.00 0.00 0.00 79 1016.4
20260905183547 23 221 0.0 0.0 0.00 0.00 0.00 78 1016.4
20260905183018 23 221 0.0 0.0 0.00 0.00 0.00 78 1016.3
20260905181948 24 221 0.0 0.0 0.00 0.00 0.00 78 1016.1
20260905181453 24 221 0.0 0.0 0.00 0.00 0.00 77 1016.0
20260905180415 24 221 0.0 0.0 0.00 0.00 0.00 77 1015.8
20260905175411 25 221 0.0 0.0 0.00 0.00 0.00 76 1015.6
20260905174838 25 221 0.0 0.0 0.00 0.00 0.00 75 1015.5
20260905174338 25 221 0.0 0.0 0.00 0.00 0.00 75 1015.4
20260905173840 26 221 0.0 0.0 0.00 0.00 0.00 75 1015.4
20260905172819 26 221 0.0 0.0 0.00 0.00 0.00 72 1015.3
20260905172257 27 221 0.0 0.0 0.00 0.00 0.00 71 1015.1
20260905171728 27 221 0.0 0.0 0.00 0.00 0.00 69 1015.1
20260905171224 28 221 0.0 0.0 0.00 0.00 0.00 69 1015.0
20260905170704 28 221 0.0 0.0 0.00 0.00 0.00 67 1014.9
20260905170132 28 221 0.0 0.0 0.00 0.00 0.00 66 1014.9
20260905165100 29 221 0.0 0.0 0.00 0.00 0.00 64 1014.9
20260905164557 29 221 0.0 0.0 0.00 0.00 0.00 65 1014.8
20260905164050 29 221 0.0 0.0 0.00 0.00 0.00 64 1014.7
20260905163547 29 220 0.0 0.0 0.00 0.00 0.00 65 1014.7
20260905163020 29 220 0.0 8.0 0.00 0.00 0.00 65 1014.6
20260905161950 30 243 3.2 12.9 0.00 0.00 0.00 62 1014.5
20260905160922 30 246 3.2 8.0 0.00 0.00 0.00 62 1014.4
20260905160420 30 238 1.6 8.0 0.00 0.00 0.00 61 1014.3
20260905155348 31 267 0.0 3.2 0.00 0.00 0.00 59 1014.2
20260905154843 32 295 0.0 1.6 0.00 0.00 0.00 57 1014.3
20260905154342 32 5 0.0 0.0 0.00 0.00 0.00 57 1014.2
20260905153809 32 5 0.0 0.0 0.00 0.00 0.00 56 1014.2
20260905152744 31 15 0.0 0.0 0.00 0.00 0.00 59 1014.1
20260905152215 31 15 0.0 0.0 0.00 0.00 0.00 58 1014.1
20260905151650 31 15 0.0 0.0 0.00 0.00 0.00 57 1014.1
20260905151143 31 15 0.0 1.6 0.00 0.00 0.00 57 1014.0
20260905150614 31 15 0.0 3.2 0.00 0.00 0.00 57 1014.0
20260905150044 31 343 0.0 4.8 0.00 0.00 0.00 60 1014.0
20260905145541 31 23 0.0 4.8 0.00 0.00 0.00 60 1014.0
20260905145036 31 40 0.0 3.2 0.00 0.00 0.00 59 1014.0
20260905144533 31 30 0.0 4.8 0.00 0.00 0.00 58 1014.0
20260905144010 31 355 0.0 4.8 0.00 0.00 0.00 60 1014.0
20260905142932 31 40 1.6 4.8 0.00 0.00 0.00 59 1014.1
20260905141355 31 37 1.6 6.4 0.00 0.00 0.00 60 1014.1
20260905140828 31 39 3.2 9.7 0.00 0.00 0.00 58 1014.1
20260905140326 31 57 4.8 9.7 0.00 0.00 0.00 58 1014.2
20260905135822 31 69 4.8 8.0 0.00 0.00 0.00 58 1014.2
20260905135320 32 69 3.2 6.4 0.00 0.00 0.00 57 1014.2
20260905134758 31 61 3.2 8.0 0.00 0.00 0.00 60 1014.2
20260905134254 31 194 3.2 6.4 0.00 0.00 0.00 58 1014.4
20260905133753 31 194 1.6 8.0 0.00 0.00 0.00 58 1014.4
20260905133253 31 182 1.6 8.0 0.00 0.00 0.00 57 1014.4
20260905132228 31 77 0.0 1.6 0.00 0.00 0.00 58 1014.4
20260905131700 31 78 0.0 3.2 0.00 0.00 0.00 60 1014.4
20260905131138 31 72 0.0 3.2 0.00 0.00 0.00 59 1014.4
20260905130631 31 98 0.0 4.8 0.00 0.00 0.00 61 1014.5
20260905130126 31 138 0.0 4.8 0.00 0.00 0.00 58 1014.5
20260905125626 31 65 0.0 4.8 0.00 0.00 0.00 60 1014.6
20260905124553 31 160 0.0 3.2 0.00 0.00 0.00 59 1014.7
20260905124051 31 163 0.0 3.2 0.00 0.00 0.00 58 1014.7
20260905123521 30 167 0.0 0.0 0.00 0.00 0.00 61 1014.8
20260905122451 30 171 0.0 1.6 0.00 0.00 0.00 59 1015.0
20260905121922 30 171 0.0 1.6 0.00 0.00 0.00 61 1015.0
20260905121421 30 169 0.0 1.6 0.00 0.00 0.00 60 1015.1
20260905120853 30 175 0.0 0.0 0.00 0.00 0.00 60 1015.1
20260905115826 30 175 0.0 6.4 0.00 0.00 0.00 59 1015.1
20260905114754 30 70 0.0 1.6 0.00 0.00 0.00 60 1015.2
20260905113726 29 70 1.6 4.8 0.00 0.00 0.00 58 1015.3
20260905113155 29 69 0.0 6.4 0.00 0.00 0.00 62 1015.2
20260905112150 29 58 1.6 6.4 0.00 0.00 0.00 62 1015.3
20260905111126 28 63 0.0 3.2 0.00 0.00 0.00 63 1015.3
20260905110606 28 42 0.0 3.2 0.00 0.00 0.00 66 1015.4
20260905110106 28 355 0.0 0.0 0.00 0.00 0.00 64 1015.5
20260905105602 28 355 0.0 0.0 0.00 0.00 0.00 65 1015.6
20260905105103 28 25 0.0 0.0 0.00 0.00 0.00 68 1015.6
20260905104538 28 26 0.0 0.0 0.00 0.00 0.00 66 1015.6
20260905104036 27 26 0.0 1.6 0.00 0.00 0.00 67 1015.7
20260905103506 27 26 0.0 1.6 0.00 0.00 0.00 67 1015.6
20260905103003 27 26 0.0 3.2 0.00 0.00 0.00 68 1015.6
20260905102436 27 355 0.0 3.2 0.00 0.00 0.00 68 1015.7
20260905101935 27 128 0.0 3.2 0.00 0.00 0.00 68 1015.6
20260905101406 27 128 0.0 3.2 0.00 0.00 0.00 69 1015.7
20260905100904 27 128 0.0 3.2 0.00 0.00 0.00 68 1015.7
20260905100339 27 122 0.0 3.2 0.00 0.00 0.00 68 1015.7
20260905095813 27 62 0.0 1.6 0.00 0.00 0.00 70 1015.9
20260905095310 27 62 0.0 1.6 0.00 0.00 0.00 70 1015.8
20260905094752 26 62 0.0 3.2 0.00 0.00 0.00 71 1015.9
20260905094253 26 62 0.0 3.2 0.00 0.00 0.00 71 1016.0
20260905093748 26 41 0.0 1.6 0.00 0.00 0.00 72 1016.0
20260905093250 26 41 0.0 1.6 0.00 0.00 0.00 74 1016.1
20260905092224 25 21 0.0 0.0 0.00 0.00 0.00 75 1016.2
20260905091654 25 21 0.0 1.6 0.00 0.00 0.00 74 1016.2
20260905091126 25 21 0.0 1.6 0.00 0.00 0.00 75 1016.1